Tracking 19280 objects as of 13-Nov-2018
HD Live streaming from Space Station
objects crossing your sky now

ALEXIS

Track ALEXIS now!
10-day predictions
ALEXIS is classified as:


NORAD ID: 22638
Int'l Code: 1993-026A
Perigee: 746.4 km
Apogee: 824.8 km
Inclination: 69.9 °
Period: 100.4 minutes
Semi major axis: 7156 km
RCS: Unknown
Launch date: April 25, 1993
Source: United States (US)
Launch site: AIR FORCE WESTERN TEST RANGE (AFWTR)
aabbcc
Your satellite tracking list
Your tracking list is empty




NASA's NSSDC Master Catalog

Two Line Element Set (TLE):
1 22638U 93026A   18261.09750935 0.00000100  00000-0  35182-4 0    04
2 22638  69.9196 265.4454 0054793  67.6001 292.3999 14.33981751    06
Source of the keplerian elements: McCants